Moorhead, MN

3:15 PM CDT on April 30, 2017 (GMT -0500)
Moorhead Municipal

Weather History for KJKJ - August, 2014

Change the Weather History Date:

Thursday, August 21, 2014

  Actual Average (KFAR) Record (KFAR)
Temperature  
Mean Temperature 72 °F -  
Max Temperature 77 °F 79 °F 103 °F (1947)
Min Temperature 68 °F 57 °F 40 °F (1920)
Cooling Degree Days 8    
Growing Degree Days 22 (Base 50)    
Moisture  
Dew Point 71 °F    
Average Humidity 95    
Maximum Humidity 100    
Minimum Humidity 83    
Precipitation  
Precipitation 0.06 in - - ()
Sea Level Pressure  
Sea Level Pressure 29.79 in    
Wind  
Wind Speed 6 mph (SE)    
Max Wind Speed 20 mph    
Max Gust Speed 26 mph    
Visibility 9 miles    
Events Rain , Thunderstorm    
Averages and records for this station are not official NWS values.
T = Trace of Precipitation, MM = Missing Value Source: NWS Daily Summary

Daily Weather History Graph

Daily Weather History Graph

Search for Another Location

Airport or City:

Trip Planner

Search our weather history database for the weather conditions in past years. The results will help you decide how hot, cold, wet, or windy it might be!

Date:

Astronomy

Aug. 21, 2014 Rise Set
Actual Time 6:32 AM CDT 8:26 PM CDT
Civil Twilight 5:59 AM CDT 8:58 PM CDT
Nautical Twilight 5:19 AM CDT 9:38 PM CDT
Astronomical Twilight 4:35 AM CDT 10:22 PM CDT
Moon 2:57 AM CDT (8/21) 6:01 PM CDT (8/21)
Length of Visible Light 14h 59m
Length of Day
13h 54m
Waning Crescent, 13% of the Moon is Illuminated
Aug 21
Waning Crescent
Aug 25
New
Sep 2
First Quarter
Sep 8
Full
Sep 15
Last Quarter

Hourly Weather History & Observations

Time (CDT) Temp. Dew Point Humidity Pressure Visibility Wind Dir Wind Speed Gust Speed Precip Events Conditions
12:15 AM 73.4 °F 69.8 °F 88% 29.79 in 10.0 mi ESE 8.1 mph - N/A   Clear
12:35 AM 73.4 °F 71.6 °F 94% 29.77 in 10.0 mi ESE 6.9 mph - N/A   Clear
12:54 AM 73.4 °F 71.6 °F 94% 29.76 in 10.0 mi ESE 6.9 mph - N/A   Clear
1:15 AM 71.6 °F 69.8 °F 94% 29.76 in 10.0 mi ESE 4.6 mph - N/A   Clear
1:35 AM 71.6 °F 69.8 °F 94% 29.76 in 10.0 mi ESE 8.1 mph - N/A   Clear
1:54 AM 71.6 °F 69.8 °F 94% 29.74 in 10.0 mi ESE 9.2 mph - N/A   Clear
2:15 AM 71.6 °F 69.8 °F 94% 29.75 in 10.0 mi SE 6.9 mph - N/A   Scattered Clouds
2:35 AM 71.6 °F 69.8 °F 94% 29.73 in 10.0 mi SE 5.8 mph - N/A   Scattered Clouds
2:54 AM 71.6 °F 69.8 °F 94% 29.75 in 10.0 mi SSE 6.9 mph - N/A Thunderstorm Unknown
3:15 AM 71.6 °F 69.8 °F 94% 29.75 in 10.0 mi SSE 12.7 mph - N/A Rain , Thunderstorm Light Thunderstorms and Rain
3:35 AM 69.8 °F 69.8 °F 100% 29.68 in 5.0 mi ESE 16.1 mph 24.2 mph 0.02 in Rain Rain
3:54 AM 69.8 °F 69.8 °F 100% 29.69 in 10.0 mi SE 12.7 mph 21.9 mph 0.03 in Rain Light Rain
4:15 AM 69.8 °F 69.8 °F 100% 29.68 in 10.0 mi ESE 9.2 mph 16.1 mph 0.01 in Rain Light Rain
4:35 AM 69.8 °F 69.8 °F 100% 29.73 in 10.0 mi SSW 10.4 mph - 0.03 in Rain Light Rain
4:54 AM 69.8 °F 69.8 °F 100% 29.67 in 10.0 mi SE 19.6 mph 26.5 mph 0.03 in Rain Light Rain
5:15 AM 71.6 °F 71.6 °F 100% 29.71 in 10.0 mi SSE 11.5 mph - N/A   Clear
5:35 AM 69.8 °F 69.8 °F 100% 29.70 in 10.0 mi SE 8.1 mph - N/A   Clear
5:55 AM 69.8 °F 69.8 °F 100% 29.72 in 10.0 mi SE 8.1 mph - N/A   Clear
6:15 AM 69.8 °F 69.8 °F 100% 29.73 in 10.0 mi SSE 3.5 mph - N/A   Clear
6:34 AM 69.8 °F 69.8 °F 100% 29.75 in 10.0 mi Calm Calm - N/A   Clear
6:55 AM 68.0 °F 68.0 °F 100% 29.76 in 10.0 mi Calm Calm - N/A   Clear
7:15 AM 68.0 °F 68.0 °F 100% 29.76 in 7.0 mi Calm Calm - N/A   Mostly Cloudy
7:34 AM 69.8 °F 69.8 °F 100% 29.76 in 10.0 mi Calm Calm - N/A   Scattered Clouds
7:55 AM 71.6 °F 71.6 °F 100% 29.76 in 10.0 mi Calm Calm - N/A   Clear
8:15 AM 71.6 °F 71.6 °F 100% 29.76 in 10.0 mi Calm Calm - N/A   Clear
8:34 AM 71.6 °F 71.6 °F 100% 29.76 in 10.0 mi Calm Calm - N/A   Scattered Clouds
8:55 AM 73.4 °F 71.6 °F 94% 29.76 in 10.0 mi ESE 3.5 mph - N/A   Scattered Clouds
9:15 AM 71.6 °F 71.6 °F 100% 29.77 in 10.0 mi Calm Calm - N/A   Mostly Cloudy
9:34 AM 71.6 °F 71.6 °F 100% 29.77 in 10.0 mi ESE 3.5 mph - N/A   Overcast
9:55 AM 71.6 °F 71.6 °F 100% 29.77 in 10.0 mi ESE 4.6 mph - N/A   Overcast
10:14 AM 73.4 °F 71.6 °F 94% 29.77 in 10.0 mi ESE 4.6 mph - N/A   Overcast
10:35 AM 73.4 °F 71.6 °F 94% 29.77 in 10.0 mi SE 4.6 mph - N/A   Overcast
10:55 AM 73.4 °F 71.6 °F 94% 29.77 in 10.0 mi SE 4.6 mph - N/A   Overcast
11:14 AM 73.4 °F 71.6 °F 94% 29.78 in 10.0 mi SSE 4.6 mph - N/A   Overcast
11:35 AM 73.4 °F 71.6 °F 94% 29.78 in 10.0 mi SE 3.5 mph - N/A   Overcast
11:55 AM 73.4 °F 71.6 °F 94% 29.78 in 10.0 mi SSE 6.9 mph - N/A   Mostly Cloudy
12:14 PM 75.2 °F 71.6 °F 89% 29.77 in 10.0 mi SSE 5.8 mph - N/A   Mostly Cloudy
12:35 PM 75.2 °F 71.6 °F 89% 29.77 in 10.0 mi SE 4.6 mph - N/A   Mostly Cloudy
12:55 PM 75.2 °F 73.4 °F 94% 29.77 in 10.0 mi ESE 6.9 mph - N/A   Mostly Cloudy
1:14 PM 77.0 °F 71.6 °F 83% 29.77 in 10.0 mi ESE 9.2 mph - N/A   Mostly Cloudy
1:35 PM 75.2 °F 71.6 °F 89% 29.77 in 10.0 mi ESE 5.8 mph - N/A   Scattered Clouds
1:55 PM 77.0 °F 71.6 °F 83% 29.78 in 10.0 mi ESE 5.8 mph - N/A   Scattered Clouds
2:14 PM 75.2 °F 71.6 °F 89% 29.78 in 10.0 mi ESE 5.8 mph - N/A   Mostly Cloudy
2:35 PM 75.2 °F 71.6 °F 89% 29.79 in 10.0 mi ESE 5.8 mph - N/A   Overcast
2:54 PM 75.2 °F 71.6 °F 89% 29.79 in 10.0 mi ESE 3.5 mph - N/A   Overcast
3:15 PM 75.2 °F 71.6 °F 89% 29.80 in 10.0 mi ESE 3.5 mph - N/A   Overcast
3:35 PM 75.2 °F 73.4 °F 94% 29.80 in 10.0 mi ESE 4.6 mph - N/A   Scattered Clouds
3:54 PM 77.0 °F 71.6 °F 83% 29.80 in 10.0 mi SE 5.8 mph - N/A   Clear
4:15 PM 75.2 °F 73.4 °F 94% 29.80 in 10.0 mi SE 3.5 mph - N/A   Scattered Clouds
4:35 PM 75.2 °F 73.4 °F 94% 29.81 in 10.0 mi SE 3.5 mph - N/A   Scattered Clouds
4:54 PM 75.2 °F 73.4 °F 94% 29.81 in 10.0 mi ESE 3.5 mph - N/A   Clear
5:15 PM 77.0 °F 73.4 °F 89% 29.82 in 10.0 mi SE 3.5 mph - N/A   Scattered Clouds
5:35 PM 77.0 °F 73.4 °F 89% 29.82 in 10.0 mi Calm Calm - N/A   Scattered Clouds
5:54 PM 75.2 °F 73.4 °F 94% 29.83 in 10.0 mi Calm Calm - N/A   Mostly Cloudy
6:15 PM 75.2 °F 73.4 °F 94% 29.83 in 10.0 mi SE 3.5 mph - N/A   Mostly Cloudy
6:35 PM 77.0 °F 73.4 °F 89% 29.82 in 10.0 mi ESE 3.5 mph - N/A   Mostly Cloudy
6:54 PM 77.0 °F 73.4 °F 89% 29.83 in 7.0 mi Calm Calm - N/A   Mostly Cloudy
7:15 PM 77.0 °F 73.4 °F 89% 29.84 in 10.0 mi Calm Calm - N/A   Scattered Clouds
7:35 PM 77.0 °F 73.4 °F 89% 29.84 in 5.0 mi Calm Calm - N/A   Scattered Clouds
7:55 PM 75.2 °F 73.4 °F 94% 29.84 in 10.0 mi Calm Calm - N/A   Scattered Clouds
8:15 PM 75.2 °F 73.4 °F 94% 29.85 in 10.0 mi Calm Calm - N/A   Clear
8:34 PM 75.2 °F 73.4 °F 94% 29.86 in 10.0 mi Calm Calm - N/A   Clear
8:55 PM 73.4 °F 73.4 °F 100% 29.87 in 10.0 mi Calm Calm - N/A   Clear
9:15 PM 71.6 °F 71.6 °F 100% 29.87 in 10.0 mi Calm Calm - N/A   Clear
9:34 PM 71.6 °F 71.6 °F 100% 29.87 in 10.0 mi Calm Calm - N/A   Clear
9:55 PM 71.6 °F 71.6 °F 100% 29.87 in 10.0 mi Calm Calm - N/A   Clear
10:15 PM 71.6 °F 71.6 °F 100% 29.87 in 10.0 mi Calm Calm - N/A   Clear
10:34 PM 69.8 °F 69.8 °F 100% 29.87 in 7.0 mi Calm Calm - N/A   Clear
10:55 PM 69.8 °F 69.8 °F 100% 29.88 in 7.0 mi Calm Calm - N/A   Clear
11:15 PM 68.0 °F 68.0 °F 100% 29.88 in 4.0 mi Calm Calm - N/A   Clear
11:34 PM 68.0 °F 68.0 °F 100% 29.87 in 0.8 mi Calm Calm - N/A   Overcast
11:55 PM 69.8 °F 69.8 °F 100% 29.88 in 3.0 mi Calm Calm - N/A   Mostly Cloudy